Weather History for KEEO - March, 2014

Change the Weather History Date:

Saturday, March 1, 2014

  Actual Average Record
Temperature  
Mean Temperature 42 °F 30 °F  
Max Temperature 50 °F 43 °F 57 °F (2009)
Min Temperature 34 °F 17 °F -2 °F (2002)
Degree Days  
Heating Degree Days 23 35  
Month to date heating degree days 23 35  
Since 1 July heating degree days 5943 5840  
Cooling Degree Days 0 0  
Month to date cooling degree days 0 0  
Year to date cooling degree days 0 0  
Moisture  
Dew Point 29 °F    
Average Humidity 59    
Maximum Humidity 79    
Minimum Humidity 39    
Precipitation  
Precipitation 0.04 in 0.03 in 0.30 in (2006)
Month to date precipitation 0.04 0.03  
Year to date precipitation 2.40 1.92  
Sea Level Pressure  
Sea Level Pressure 29.64 in    
Wind  
Wind Speed 14 mph (SW)    
Max Wind Speed 36 mph    
Max Gust Speed 44 mph    
Visibility 10 miles    
Events Rain , Snow    
T = Trace of Precipitation, MM = Missing Value Source: NWS Daily Summary

Daily Weather History Graph

Daily Weather History Graph

Search for Another Location

Airport or City:

Trip Planner

Search our weather history database for the weather conditions in past years. The results will help you decide how hot, cold, wet, or windy it might be!

Date:

Astronomy

Mar. 01, 2014 Rise Set
Actual Time 6:44 AM MST 6:03 PM MST
Civil Twilight 6:17 AM MST 6:30 PM MST
Nautical Twilight 5:46 AM MST 7:02 PM MST
Astronomical Twilight 5:14 AM MST 7:33 PM MST
Moon 6:40 AM MST (3/1) 6:54 PM MST (3/1)
Length of Visible Light 12h 13m
Length of Day
11h 18m
New Moon, 0% of the Moon is Illuminated
Mar 1
New Moon
Mar 8
First Quarter
Mar 16
Full
Mar 23
Last Quarter
Mar 30
New

Hourly Weather History & Observations

Time (MST) Temp. Windchill Dew Point Humidity Pressure Visibility Wind Dir Wind Speed Gust Speed Precip Events Conditions
12:53 AM 39.9 °F 35.8 °F 30.0 °F 68% 29.58 in 10.0 mi North 5.8 mph - N/A   Scattered Clouds
1:53 AM 44.1 °F 39.0 °F 30.0 °F 58% 29.55 in 10.0 mi WSW 9.2 mph - N/A   Mostly Cloudy
2:53 AM 45.0 °F 37.6 °F 30.9 °F 58% 29.52 in 10.0 mi SW 17.3 mph 23.0 mph N/A   Overcast
3:53 AM 43.0 °F 36.0 °F 33.1 °F 68% 29.53 in 10.0 mi SSW 13.8 mph 17.3 mph N/A   Overcast
4:53 AM 39.9 °F 32.9 °F 34.0 °F 79% 29.57 in 10.0 mi SW 11.5 mph - 0.01 in Rain Light Rain
5:42 AM 39.0 °F 31.0 °F 34.0 °F 82% 29.65 in 10.0 mi SW 13.8 mph - 0.03 in Rain Light Rain
5:53 AM 39.0 °F 33.4 °F 33.1 °F 79% 29.60 in 10.0 mi SSW 8.1 mph - 0.03 in Rain Light Rain
6:20 AM 39.0 °F - 32.0 °F 76% 29.65 in 10.0 mi Calm Calm - 0.00 in   Mostly Cloudy
6:53 AM 39.9 °F 32.9 °F 32.0 °F 73% 29.57 in 10.0 mi SW 11.5 mph 20.7 mph 0.00 in   Scattered Clouds
7:53 AM 41.0 °F 31.1 °F 30.9 °F 67% 29.60 in 10.0 mi SSW 23.0 mph 31.1 mph N/A   Partly Cloudy
8:53 AM 44.1 °F 35.7 °F 30.9 °F 60% 29.60 in 10.0 mi SW 20.7 mph 31.1 mph N/A   Partly Cloudy
9:53 AM 45.0 °F 35.6 °F 30.0 °F 56% 29.60 in 10.0 mi SW 27.6 mph 36.8 mph N/A   Scattered Clouds
10:53 AM 46.9 °F - 30.0 °F 52% 29.62 in 10.0 mi SW 24.2 mph 32.2 mph N/A   Mostly Cloudy
11:53 AM 46.9 °F - 27.0 °F 46% 29.62 in 10.0 mi SW 24.2 mph 43.7 mph N/A   Scattered Clouds
12:53 PM 48.0 °F - 27.0 °F 44% 29.59 in 10.0 mi SSW 26.5 mph 35.7 mph N/A   Mostly Cloudy
1:53 PM 48.9 °F - 26.1 °F 41% 29.55 in 10.0 mi SW 24.2 mph 38.0 mph N/A   Partly Cloudy
2:53 PM 48.9 °F - 26.1 °F 41% 29.57 in 10.0 mi SSW 23.0 mph 33.4 mph N/A   Mostly Cloudy
3:53 PM 48.0 °F - 25.0 °F 41% 29.59 in 10.0 mi SW 20.7 mph 26.5 mph N/A   Partly Cloudy
4:48 PM 37.4 °F 28.2 °F 30.2 °F 75% 29.76 in 6.0 mi SW 16.1 mph 28.8 mph 0.00 in Snow Light Snow
4:53 PM 37.0 °F 29.3 °F 30.9 °F 79% 29.70 in 7.0 mi WSW 11.5 mph 24.2 mph 0.00 in Snow Light Snow
4:59 PM 37.0 °F 31.6 °F 30.9 °F 79% 29.75 in 9.0 mi SSW 6.9 mph - 0.00 in Snow Light Snow
5:53 PM 39.0 °F 31.8 °F 28.9 °F 67% 29.72 in 10.0 mi SW 11.5 mph - 0.00 in   Clear
6:53 PM 37.9 °F - 28.0 °F 68% 29.74 in 10.0 mi Calm Calm - N/A   Clear
7:53 PM 39.0 °F 34.8 °F 27.0 °F 62% 29.75 in 10.0 mi Variable 5.8 mph - N/A   Clear
8:53 PM 37.0 °F 33.3 °F 26.1 °F 65% 29.75 in 10.0 mi Variable 4.6 mph - N/A   Clear
9:53 PM 37.9 °F 35.5 °F 26.1 °F 62% 29.77 in 10.0 mi West 3.5 mph - N/A   Mostly Cloudy
10:53 PM 37.9 °F - 27.0 °F 65% 29.75 in 10.0 mi Calm Calm - N/A   Mostly Cloudy
11:53 PM 35.1 °F 31.0 °F 27.0 °F 72% 29.80 in 10.0 mi ESE 4.6 mph - N/A   Overcast